This demonstration page uses our WeatherBlox Daily Observations layout. Learn more.

Left ArrowRight Arrow

Hourly Observations for April 17, 2022

Temp ( °F °C ) Dew Point ( °F °C ) Humidity (%) Winds ( mph kmh ) Pressure ( in mb ) Visibility ( mi km ) Precip ( " mm )
12:52 am 00:52 Cloudy 50 10 30 -1.1 46 46 E 13 20 30.07 1018 10 16 0.00 0.00
1:52 am 01:52 Cloudy with Nearby Thunderstorms 50 10 30 -1.1 46 46 E 7 11 30.10 1019 10 16 0.00 0.00
2:07 am 02:07 Cloudy with Light Rain 49 9.4 32 0 52 52 E 15 24 30.09 1019 10 16 0.00 0.00
2:19 am 02:19 Cloudy with Nearby Thunderstorms 47 8.3 34 1.1 61 61 ESE 15 24 30.09 1019 9 14 0.00 0.00
2:40 am 02:40 Cloudy with Light Rain 45 7.2 37 2.8 74 74 E 9 15 30.10 1019 8 13 0.01 0.25
2:52 am 02:52 Cloudy with Heavy Rain 44 6.7 38 3.3 79 79 E 14 22 30.07 1018 5 8 0.03 0.76
3:50 am 03:50 Cloudy with Nearby Thunderstorms 43 6 39 4 87 87 E 13 20 30.08 1019 10 16 0.07 1.78
3:52 am 03:52 Cloudy with Nearby Thunderstorms 43 6.1 39 3.9 86 86 E 15 24 30.05 1018 10 16 0.07 1.78
4:20 am 04:20 Cloudy with Thunderstorms 43 6.1 38 3.3 82 82 ENE 14 22 30.11 1020 10 16 0.00 0.00
4:35 am 04:35 Cloudy with Nearby Thunderstorms 43 6.1 38 3.3 82 82 E 14 22 30.10 1019 10 16 0.00 0.00
4:42 am 04:42 Cloudy 43 6.1 38 3.3 82 82 E 14 22 30.09 1019 10 16 0.00 0.00
4:52 am 04:52 Cloudy 43 6.1 38 3.3 82 82 E 13 20 30.06 1018 10 16 0.00 0.00
5:52 am 05:52 Cloudy 42 5.6 38 3.3 85 85 E 16 26 30.06 1018 10 16 0.06 1.52
6:52 am 06:52 Cloudy 42 5.6 37 2.8 82 82 E 16 26 30.06 1018 10 16 0.00 0.00
7:52 am 07:52 Cloudy with Light Rain 41 5 37 2.8 86 86 E 16 26 30.08 1019 10 16 0.00 0.00
8:25 am 08:25 Cloudy 41 5 37 2.8 86 86 E 13 20 30.10 1019 10 16 0.00 0.00
8:47 am 08:47 Cloudy 41 5 37 3 87 87 ESE 17 28 30.10 1019 10 16 0.00 0.00
8:52 am 08:52 Cloudy 41 5 37 2.8 86 86 ESE 17 28 30.06 1018 10 16 0.00 0.00
9:52 am 09:52 Cloudy 42 5.6 37 2.8 82 82 ESE 14 22 30.07 1018 10 16 0.00 0.00
10:16 am 10:16 Cloudy with Light Rain 43 6.1 38 3.3 82 82 ESE 18 30 30.08 1019 10 16 0.00 0.00
10:52 am 10:52 Cloudy 44 6.7 38 3.3 79 79 ESE 16 26 30.04 1017 10 16 0.00 0.00
11:52 am 11:52 Cloudy 44 6.7 37 2.8 76 76 ESE 14 22 30.04 1017 10 16 0.00 0.00
12:02 pm 12:02 Cloudy 45 7.2 37 2.8 74 74 ESE 15 24 30.04 1017 10 16 0.00 0.00
12:52 pm 12:52 Cloudy 46 7.8 35 1.7 66 66 ESE 16 26 30.01 1016 10 16 0.00 0.00
1:52 pm 13:52 Cloudy 47 8.3 36 2.2 66 66 SE 10 17 30.01 1016 10 16 0.00 0.00
2:52 pm 14:52 Cloudy 47 8.3 37 2.8 69 69 SE 15 24 30.00 1016 10 16 0.00 0.00
3:52 pm 15:52 Cloudy 47 8.3 37 2.8 69 69 ENE 7 11 29.99 1016 10 16 0.00 0.00
4:50 pm 16:50 Cloudy with Light Rain 45 7 39 4 81 81 N 12 19 30.03 1017 6 10 0.00 0.00
4:52 pm 16:52 Cloudy with Light Rain 44 6.7 40 4.4 85 85 N 12 19 30.01 1016 5 8 0.00 0.00
4:59 pm 16:59 Cloudy with Light Rain 43 6.1 41 5 93 93 NNE 9 15 30.03 1017 4 6 0.00 0.00
5:52 pm 17:52 Cloudy with Mist and Fog 42 5.6 40 4.4 92 92 ENE 15 24 30.01 1016 4 6 0.00 0.00
6:52 pm 18:52 Cloudy 42 5.6 39 3.9 89 89 ENE 10 17 30.01 1016 10 16 0.00 0.00
7:15 pm 19:15 Cloudy 42 5.6 39 3.9 89 89 ENE 8 13 30.03 1017 10 16 0.00 0.00
7:52 pm 19:52 Cloudy 42 5.6 39 3.9 89 89 NNE 9 15 30.03 1017 10 16 0.00 0.00
8:11 pm 20:11 Cloudy 42 5.6 39 3.9 89 89 NNE 7 11 30.06 1018 10 16 0.00 0.00
8:24 pm 20:24 Cloudy 42 5.6 39 3.9 89 89 NNE 8 13 30.06 1018 10 16 0.00 0.00
8:52 pm 20:52 Cloudy 42 5.6 39 3.9 89 89 N 7 11 30.08 1019 10 16 0.00 0.00
9:00 pm 21:00 Cloudy 42 5.6 39 3.9 89 89 N 7 11 30.10 1019 10 16 0.00 0.00
9:07 pm 21:07 Cloudy 42 5.6 39 3.9 89 89 N 9 15 30.10 1019 10 16 0.00 0.00
9:41 pm 21:41 Cloudy 41 5 39 3.9 93 93 N 8 13 30.12 1020 8 13 0.00 0.00
9:52 pm 21:52 Cloudy with Mist and Fog 41 5 39 3.9 93 93 N 10 17 30.10 1019 6 10 0.00 0.00
10:00 pm 22:00 Cloudy with Mist and Fog 41 5 39 3.9 93 93 N 13 20 30.13 1020 5 8 0.00 0.00
10:52 pm 22:52 Cloudy 40 4.4 38 3.3 93 93 NNE 10 17 30.11 1020 9 14 0.00 0.00
11:52 pm 23:52 Cloudy 40 4.4 38 3.3 93 93 NNE 10 17 30.12 1020 10 16 0.00 0.00

Powered by AerisWeather